Regional Weather Roundup
Issued by NWS

Home | Current Version | Previous Version | Graphics & Text | Print | Product List | Glossary On
Versions: 1 2 3 4 5 6 7 8 9 10 11 12 13 14 15 16 17 18 19 20 21 22 23 24 25 26 27 28 29 30 31 32 33 34 35 36 37 38 39 40 41 42 43 44 45 46 47 48 49 50
000
ASUS43 KIND 012209
RWRIN

WEATHER ROUNDUP FOR INDIANA
NATIONAL WEATHER SERVICE INDIANAPOLIS IN
600 PM EDT SUN MAY 01 2016

NOTE: "FAIR" INDICATES FEW OR NO CLOUDS BELOW 12,000 FEET WITH NO
SIGNIFICANT WEATHER AND/OR OBSTRUCTIONS TO VISIBILITY.

* - STATION DOES NOT REPORT WEATHER SUCH AS PRECIPITATION OR FOG.

+ - STATION NOT QUALITY CONTROLLED BY THE NATIONAL WEATHER SERVICE.
    USE DATA WITH CAUTION...ESPECIALLY DEWPOINT AND RELATIVE
    HUMIDITY OBSERVATIONS.

INZ001>003-010>013-019-020-012300-
NORTHWEST INDIANA

CITY           SKY/WX    TMP DP  RH WIND       PRES   REMARKS
GARY /AIRPORT/ CLOUDY    48  48 100 N10       29.98F
KNOX *+        CLOUDY    55  46  71 NE6       29.94F
LA PORTE +     CLOUDY    54  54 100 N9        29.96F
MICHIGAN CITY+ CLOUDY    50  50 100 N5        29.98F
MONTICELLO +   CLOUDY    60  54  79 NE6       29.91F
RENSSELAER +   CLOUDY    59  54  82 N6        29.92F
VALPARAISO     CLOUDY    51  47  86 N10       29.96F

$$

LMZ046-743>745-012300-
SOUTHERN LAKE MICHIGAN

STATION/POSITION TIME  TEMP    WIND        PRES    WAVE
                       AIR SEA DIR/SP/G            HT
                 (UTC) (F)     (DEG/KT/KT) (MB)    (FT)
BURNS HARBOR     2116   46      10/  8/ 10 1015.9S
MICHIGAN CITY    2100   46      10/  5/  5   N/A

$$

INZ004-005-014>016-021>024-012300-
NORTH CENTRAL INDIANA

CITY           SKY/WX    TMP DP  RH WIND       PRES   REMARKS
ELKHART        CLOUDY    55  54  94 MISG      29.97S
GOSHEN         CLOUDY    56  51  84 NE7       29.96R
LOGANSPORT +   CLOUDY    61  57  88 N7        29.91F
PERU/GRISSOM   PTSUNNY   66  61  84 N8        29.89F
ROCHESTER +    CLOUDY    59  55  88 N7        29.93F
SOUTH BEND     CLOUDY    55  50  83 NE9       29.97S
WARSAW +       CLOUDY    55  52  88 NE7       29.94F

$$

INZ006>009-017-018-025>027-012300-
NORTHEAST INDIANA

CITY           SKY/WX    TMP DP  RH WIND       PRES   REMARKS
ANGOLA *+      CLOUDY    54  43  66 NE5       29.96S
AUBURN +       CLOUDY    55  52  88 NE8       29.96S
FORT WAYNE     CLOUDY    61  55  81 N9        29.93F
HUNTINGTON +   CLOUDY   N/A N/A N/A N8        29.92F

$$

INZ028-029-035-036-043>045-051>053-012300-
WEST CENTRAL INDIANA

CITY           SKY/WX    TMP DP  RH WIND       PRES   REMARKS
CRAWFORDSVL +  SUNNY     70  58  64 S3        29.88F
GREENCASTLE +  MOSUNNY   73  61  64 CALM      29.88F
LAFAYETTE      MOSUNNY   66  59  78 N7        29.89F
TERRE HAUTE    MOSUNNY   74  58  57 SW7       29.87F

$$

INZ030>032-037>040-046>048-054>057-064-065-012300-
CENTRAL INDIANA

CITY           SKY/WX    TMP DP  RH WIND       PRES   REMARKS
CP ATTERBURY + MOSUNNY   73  59  60 E3        29.88S
COLUMBUS       PTSUNNY   75  57  53 CALM      29.88F
FISHERS *+     PTSUNNY   75  61  60 W6        29.88F
FRANKFORT +      N/A     72  46  39 CALM      29.91S
INDIANAPOLIS   PTSUNNY   75  55  49 W6        29.87F
-EAGLE CREEK   MOSUNNY   75  57  53 W9        29.88S
KOKOMO *+      MOSUNNY   70  59  68 N8        29.89F
MARION +       MOSUNNY   70  61  73 N8        29.91S
SHELBYVILLE    SUNNY     78  55  44 W3        29.87F
ZIONSVILLE +   MOSUNNY   72  58  62 W7        29.90S

$$

INZ033-034-041-042-049-050-058-059-012300-
EAST CENTRAL INDIANA

CITY           SKY/WX    TMP DP  RH WIND       PRES   REMARKS
MUNCIE         PTSUNNY   75  57  53 NW10      29.89F

$$

INZ060-061-067>069-081>083-085>088-012300-
SOUTHWEST INDIANA

CITY           SKY/WX    TMP DP  RH WIND       PRES   REMARKS
EVANSVILLE     MOSUNNY   78  62  57 SW12G21   29.88S
HUNTINGBURG *+ SUNNY     75  64  69 W7        29.89R
WASHINGTON +   MOSUNNY   75  63  65 SW12      29.87S

$$

INZ062-063-066-070>080-084-089>092-012300-
SOUTH CENTRAL AND SOUTHEAST INDIANA

CITY           SKY/WX    TMP DP  RH WIND       PRES   REMARKS
BLOOMINGTON    CLOUDY    76  57  51 W8        29.88S
MADISON *+     CLOUDY    73  55  53 S10       29.91S
NORTH VERNON + MOSUNNY   79  64  61 CALM      29.88S
SEYMOUR +      MOSUNNY   79  57  47 CALM      29.85

$$




USA.gov is the U.S. government's official web portal to all federal, state and local government web resources and services.